Find Starlink 3716

NORAD ID: 52092 Int'l Des: 2022-029 Owner: SPXS Country: US Constellation: starlink operational
LEOCIRCULAR

当前视图

正在加载3D地球...

About Starlink 3716

Starlink 3716 (NORAD 52092) is a starlink constellation satellite (v1.5) launched Mar 19, 2022 by SPXS of US. It operates in LEO, CIRCULAR orbit with a mass of 297.00 kg.

即将过境

Passes for default location (London). Set your location on the main map for personalized predictions.

高度历史

Loading altitude history...

两行轨道根数

1 52092U 22029E 26237.33335648 .01254391 00000-0 38834-1 0 9990
2 52092 53.1625 48.0966 0000937 94.3878 254.7982 15.30145358 5842
Epoch: Aug 25, 2026 • Age: 8 hours

当前状态

高度 483.4 km
远地点 / 近地点 N/A
速度 7.62 km/s
星下点 -31.70°S, 169.7°E
发射日期 Mar 19, 2022
运行时间 4.4 years
类型 internet

技术详情

分类 Payload
质量 297.00 kg
干质量 275.00 kg
总质量 297.00 kg
长度 0.20 m
直径 2.80 m
跨度 9.00 m
形状 Box + pan
制造商 SPXS
平台类型 Starlink
阶段状态 In Orbit
所有者/国家 SPXS/US

Most Searched